Flag for Germany Weather past 2 weeks in Bad Oeynhausen, North Rhine-Westphalia, Germany

Now
61 °F

Light rain. Partly sunny.


Feels Like: 61 °F
Forecast: 52 / 66 °F
Wind: 8 mph from Northwest

Location: Bueckeburg

Current Time: Sep 1, 2015 at 4:51:35 PM

Latest Report: Sep 1, 2015 at 4:20 PM


Visibility: N/A

Pressure: 29.86 "Hg

Humidity: 94%

Dew point: 59 °F

Location of Bad OeynhausenLocation

Historic Weather in Bad Oeynhausen — Graph

°F

Bad Oeynhausen temperature yesterday

Maximum temperature yesterday: 91 °F (at 4:20 PM)
Minimum temperature yesterday: 66 °F (at 6:20 AM)
Average temperature yesterday: 77 °F

Past Weeks' High & Low Weather Summary

 TemperatureHumidityPressure
High91 °F (Aug 31, 4:20 PM)100% (Aug 17, 8:20 PM)30.27 "Hg (Aug 17, 8:20 PM)
Low52 °F (Aug 29, 6:20 AM)30% (Aug 31, 4:20 PM)29.56 "Hg (Aug 24, 6:20 PM)
Average66 °F72%29.97 "Hg
* Reported Aug 17 3:20 PM — Sep 1 3:20 PM, Bad Oeynhausen, Weather by CustomWeather, © 2015

Note: Actual official high and low records may vary slightly from our data, if they occured in-between our weather recording intervals... More about our weather records

Advertising

Bad Oeynhausen weather history for previous 24 hours

 ConditionsComfort  
Time TempWeatherWind HumidityBarometerVisibility
3:20 PM
Tue, Sep 1
61 °FRain. Partly sunny.10 mph88%29.86 "HgN/A
2:20 PM63 °FLight rain. Partly sunny.9 mph94%29.83 "HgN/A
1:20 PM63 °FLight rain. Partly sunny.8 mph88%29.83 "HgN/A
12:20 PM63 °FLight rain. Mostly cloudy.10 mph88%29.80 "Hg5 mi
11:20 AM64 °FMostly cloudy.12 mph83%29.80 "HgN/A
10:20 AM64 °FPartly sunny.12 mph83%29.80 "HgN/A
9:20 AM66 °FBroken clouds.13 mph83%29.80 "HgN/A
8:20 AM66 °FPartly sunny.12 mph78%29.77 "HgN/A
7:20 AM68 °FPassing clouds.15 mph73%29.77 "HgN/A
6:20 AM68 °FPartly cloudy.14 mph83%29.77 "HgN/A
5:20 AM70 °FPassing clouds.9 mph78%29.77 "HgN/A
4:20 AM70 °FPassing clouds.9 mph83%29.77 "HgN/A
3:20 AM70 °FPassing clouds.10 mph83%29.77 "HgN/A
2:20 AM72 °FPassing clouds.9 mph78%29.77 "HgN/A
1:20 AM72 °FPassing clouds.7 mph78%29.77 "HgN/A
12:20 AM73 °FPassing clouds.6 mph74%29.77 "HgN/A
11:20 PM
Mon, Aug 31
73 °FPassing clouds.6 mph69%29.77 "HgN/A
10:20 PM75 °FPassing clouds.6 mph54%29.74 "HgN/A
9:20 PM79 °FPassing clouds.8 mph45%29.74 "HgN/A
8:20 PM81 °FScattered clouds.8 mph42%29.74 "HgN/A
7:20 PM86 °FScattered clouds.10 mph33%29.74 "HgN/A
6:20 PM90 °FScattered clouds.9 mph31%29.74 "HgN/A
5:20 PM91 °FScattered clouds.8 mph32%29.74 "HgN/A
4:20 PM91 °FScattered clouds.12 mph30%29.74 "HgN/A
Weather by CustomWeather, © 2015

See weather overviewHow to use our weather pages